Voltar ao catálogo

COSMOS 917 DEB

AtivoHEO
NORAD 26964·DEBRIS·🇷🇺 Russia

Lançado Jun 16, 1977 de Plesetsk Cosmodrome

Loading…

Próximas Passagens (próximas 24 horas)

TLE

AtualizadoSource: Space-Track

Época: Sep 14, 2026, 11:38 UTC

1 26964U 77047E   26257.48536115 -.00000935  00000-0  00000-0 0  9995
2 26964  61.3203 277.4194 7271656  40.1687 355.4232  2.02645065579182

Acompanhe COSMOS 917 DEB em tempo real com AllMySat

Download on the App Store